Waarnemingen

Advertentie
Mijn weer
Biarritz, Frankrijk (7602): temperatuur & dauwpunt: 28.11.2020 00:00:00 - 04.12.2020 00:00:00 (CET)Biarritz, Frankrijk (7602): temperatuur 5cm: 28.11.2020 00:00:00 - 04.12.2020 00:00:00 (CET)Biarritz, Frankrijk (7602): temperatuur -20cm & temperatuur -100cm: 28.11.2020 00:00:00 - 04.12.2020 00:00:00 (CET)Biarritz, Frankrijk (7602): windsnelheid & windstoten: 28.11.2020 00:00:00 - 04.12.2020 00:00:00 (CET)Biarritz, Frankrijk (7602): windrichting: 28.11.2020 00:00:00 - 04.12.2020 00:00:00 (CET)Biarritz, Frankrijk (7602): luchtdruk: 28.11.2020 00:00:00 - 04.12.2020 00:00:00 (CET)Biarritz, Frankrijk (7602): zicht: 28.11.2020 00:00:00 - 04.12.2020 00:00:00 (CET)Biarritz, Frankrijk (7602): Zonneschijnduur: 28.11.2020 00:00:00 - 04.12.2020 00:00:00 (CET)Biarritz, Frankrijk (7602): neerslag: 28.11.2020 00:00:00 - 04.12.2020 00:00:00 (CET)
Datum & Tijd tt [°C] td [°C] tt 5cm [°C] tt -20cm [°C] tt -100cm [°C] ff [km/u] ff [kn] fx [km/u] fx [kn] dd ppp [hPa] vv [km] sd [min] rr [mm]
04.12.2020 00:00:00 9,2 7,1 7,8 10,6 13,1 48 26 72 39 W 995,3 3,9 0 1,2
03.12.2020 23:00:00 12,2 4,4 9,5 10,7 13,1 19 10 46 25 ZW 994,2 20 0 0,0
03.12.2020 22:00:00 11,1 2,9 8,3 10,7 13,1 16 9 37 20 ZZW 993,7 60 0 0,0
03.12.2020 21:00:00 10,6 3,6 7,7 10,7 13,1 11 6 35 19 Z 995,2 31 0 0,0
03.12.2020 20:00:00 11,3 2,8 9,5 10,8 13,1 14 8 41 22 ZZW 997,0 60 0 0,0
03.12.2020 19:00:00 11,5 2,2 10,3 10,8 13,1 12 6 31 17 Z 998,5 55 0 0,0
03.12.2020 18:00:00 12,0 1,6 10,7 10,8 13,1 11 6 39 21 ZZW 999,7 60 0 0,0
03.12.2020 17:00:00 12,0 3,2 11,0 10,7 13,2 13 7 28 15 ZZW 1001,2 60 0 0,0
03.12.2020 16:00:00 12,3 5,2 11,6 10,6 13,2 8 4 27 15 Z 1001,9 60 0 0,0
03.12.2020 15:00:00 13,0 5,6 13,1 10,5 13,2 10 5 28 15 ZW 1003,1 60 14 0,0
03.12.2020 14:00:00 14,1 7,2 13,0 10,4 13,2 11 6 26 14 ZW 1005,2 54 28 0,0
03.12.2020 13:00:00 13,4 6,0 13,6 10,3 13,2 14 7 30 16 WZW 1007,0 54 26 0,0
03.12.2020 12:00:00 13,2 7,4 12,2 10,2 13,2 8 4 24 13 ZZW 1008,3 19 48 0,0
03.12.2020 11:00:00 10,7 7,4 10,3 10,2 13,2 9 5 19 11 ZZW 1009,9 54 3 0,0
03.12.2020 10:00:00 10,3 7,0 8,4 10,2 13,2 7 4 15 8 ZW 1011,1 59 10 0,0
03.12.2020 09:00:00 8,8 7,4 6,3 10,2 13,2 7 4 14 8 ZW 1011,9 55 14 0,0
03.12.2020 08:00:00 8,1 6,9 6,7 10,3 13,2 8 4 21 12 ZZW 1012,7 58 0 0,2
03.12.2020 07:00:00 7,9 6,7 6,8 10,2 13,2 8 5 19 10 ZZW 1013,8 56 0 0,2
03.12.2020 06:00:00 7,9 6,4 6,8 10,3 13,2 8 4 16 9 ZW 1014,5 7 0 0,2
03.12.2020 05:00:00 7,8 5,4 6,7 10,4 13,3 7 4 19 10 ZZW 1015,7 57 0 0,0
03.12.2020 04:00:00 7,6 5,4 6,6 10,3 13,2 8 4 16 9 ZW 1016,3 22 0 0,0
03.12.2020 03:00:00 7,2 4,8 5,4 10,4 13,3 7 4 14 8 Z 1017,1 58 0 0,0
03.12.2020 02:00:00 7,1 4,7 4,3 10,5 13,3 8 4 15 8 ZZW 1018,2 37 0 0,0
03.12.2020 01:00:00 6,0 4,2 3,9 10,5 13,3 7 4 16 9 Z 1019,0 36 0 0,0
03.12.2020 00:00:00 6,0 4,6 4,6 10,6 13,3 7 4 12 6 Z 1019,5 33 0 0,0
02.12.2020 23:00:00 6,7 5,2 5,4 10,6 13,3 6 4 13 7 ZZW 1019,9 33 0 0,4
02.12.2020 22:00:00 6,8 4,1 5,4 10,6 13,3 5 3 11 6 Z 1020,7 35 0 0,0
02.12.2020 21:00:00 6,7 4,4 5,3 10,7 13,3 5 3 13 7 Z 1021,1 36 0 0,0
02.12.2020 20:00:00 6,7 4,0 5,2 10,7 13,3 5 3 13 7 ZZW 1021,2 41 0 0,0
02.12.2020 19:00:00 6,7 4,0 5,4 10,7 13,3 5 3 11 6 ZZW 1021,0 36 0 0,4
02.12.2020 18:00:00 7,4 3,6 5,6 10,7 13,3 4 2 14 8 ZW 1021,2 10 5 0,2
02.12.2020 17:00:00 8,8 2,6 7,7 10,7 13,3 4 2 9 5 ZW 1021,1 59 44 0,0
02.12.2020 16:00:00 9,0 1,6 9,1 10,6 13,3 8 4 15 8 W 1021,3 60 0 0,0
02.12.2020 15:00:00 9,2 1,8 9,9 10,5 13,3 8 4 16 8 NNW 1021,0 55 39 0,0
02.12.2020 14:00:00 10,2 2,1 11,4 10,4 13,3 4 2 14 8 NO 1021,0 20 38 0,0
02.12.2020 13:00:00 9,5 2,8 9,7 10,3 13,3 3 1 8 5 ZZW 1021,4 53 23 0,0
02.12.2020 12:00:00 8,3 4,3 8,1 10,3 13,3 3 2 9 5 Z 1021,9 37 11 0,0
02.12.2020 11:00:00 6,9 4,4 7,2 10,3 13,3 4 2 8 5 Z 1022,3 20 3 0,0
02.12.2020 10:00:00 6,4 5,0 2,9 10,4 13,3 4 2 10 5 ZZW 1022,3 19 32 0,0
02.12.2020 09:00:00 3,1 2,7 -0,1 10,5 13,3 8 5 14 7 ZZO 1022,1 15 11 0,2
02.12.2020 08:00:00 3,1 2,7 0,3 10,7 13,3 8 5 11 6 ZZO 1021,9 8 0 0,0
02.12.2020 07:00:00 3,3 2,7 0,8 10,8 13,4 6 3 9 5 Z 1021,8 10 0 0,0
02.12.2020 06:00:00 3,5 2,9 1,1 10,9 13,3 8 4 10 5 ZZO 1022,0 10 0 0,0
02.12.2020 05:00:00 3,9 3,2 1,6 11,1 13,4 6 4 13 7 ZO 1022,1 17 0 0,0
02.12.2020 04:00:00 4,6 3,1 3,0 11,1 13,3 8 5 19 10 O 1022,4 19 0 0,0
02.12.2020 03:00:00 5,4 3,9 3,3 11,3 13,4 9 5 16 9 NO 1022,7 21 0 0,0
02.12.2020 02:00:00 5,8 4,3 4,4 11,3 13,3 11 6 22 12 NNO 1022,5 17 0 0,0
02.12.2020 01:00:00 6,7 4,7 5,8 11,4 13,3 10 5 26 14 NO 1022,5 25 0 0,0
02.12.2020 00:00:00 7,8 5,4 6,9 11,4 13,3 15 8 27 15 NO 1022,4 24 0 0,0
01.12.2020 23:00:00 9,1 8,2 8,7 11,4 13,3 9 5 19 11 ONO 1022,2 12 0 0,0
01.12.2020 22:00:00 9,1 8,3 8,4 11,4 13,3 8 4 14 7 ONO 1022,2 21 0 0,0
01.12.2020 21:00:00 9,5 8,6 8,9 11,4 13,4 9 5 28 15 ONO 1021,9 37 0 0,0
01.12.2020 20:00:00 10,1 9,3 9,5 11,4 13,4 18 10 42 23 NNO 1021,8 5 0 2,7
01.12.2020 19:00:00 11,6 10,7 10,6 11,3 13,4 21 11 56 30 NW 1021,3 2,1 0 2,4
01.12.2020 18:00:00 13,5 9,0 12,6 11,3 13,4 27 14 39 21 W 1021,3 57 0 0,0
01.12.2020 17:00:00 13,2 10,9 12,7 11,2 13,4 19 10 34 18 W 1022,2 16 0 0,0
01.12.2020 16:00:00 13,3 8,4 13,0 11,1 13,4 20 11 35 19 W 1022,8 46 0 0,0
01.12.2020 15:00:00 13,1 10,1 13,2 11,0 13,4 20 11 36 19 W 1023,6 20 0 0,0
01.12.2020 14:00:00 13,1 9,7 13,7 10,9 13,4 14 7 29 16 WZW 1024,4 18 4 0,0
01.12.2020 13:00:00 12,7 9,3 12,0 10,8 13,4 14 8 24 13 W 1025,3 20 0 0,0
01.12.2020 12:00:00 11,9 9,5 11,7 10,7 13,4 14 7 23 12 W 1026,2 16 0 0,0
01.12.2020 11:00:00 10,9 9,3 10,7 10,7 13,4 6 3 11 6 ZZW 1026,6 7 0 0,0
01.12.2020 10:00:00 10,8 7,8 6,4 10,8 13,4 2 1 10 5 O 1026,9 3,7 0 0,0
01.12.2020 09:00:00 7,6 7,2 2,8 10,9 13,4 7 4 13 7 ZW 1026,7 6 0 0,0
01.12.2020 08:00:00 7,2 6,9 2,0 11,0 13,4 6 3 9 5 ZZW 1026,7 3,8 0 0,2
01.12.2020 07:00:00 6,1 5,7 1,9 11,1 13,4 6 3 9 5 Z 1026,9 1,9 0 0,0
01.12.2020 06:00:00 6,4 5,7 3,5 11,2 13,4 5 3 8 5 ZO 1027,1 0,2 0 0,0
01.12.2020 05:00:00 9,4 7,0 6,2 11,2 13,4 4 2 13 7 NO 1027,0 3,3 0 0,0
01.12.2020 04:00:00 9,3 7,1 6,4 11,3 13,4 8 4 14 8 NW 1027,3 14 0 0,0
01.12.2020 03:00:00 9,4 7,3 6,8 11,3 13,4 9 5 16 8 WNW 1027,3 14 0 0,0
01.12.2020 02:00:00 9,8 7,7 8,1 11,4 13,4 10 5 16 9 WNW 1027,3 12 0 0,0
01.12.2020 01:00:00 10,4 8,8 8,7 11,4 13,4 6 3 16 9 WNW 1027,3 5 0 0,0
01.12.2020 00:00:00 9,3 8,8 6,3 11,4 13,4 5 3 9 5 WZW 1027,4 2,6 0 0,0
30.11.2020 23:00:00 9,2 8,4 6,3 11,4 13,4 4 2 8 4 Z 1027,1 2,7 0 0,0
30.11.2020 22:00:00 9,9 8,7 6,8 11,5 13,4 3 2 6 3 NNW 1027,4 4,5 0 0,0
30.11.2020 21:00:00 10,4 8,8 8,2 11,4 13,4 0 0 4 2 N 1026,8 6 0 0,0
30.11.2020 20:00:00 10,5 8,8 8,8 11,4 13,4 2 1 6 4 Z 1026,3 6 0 0,0
30.11.2020 19:00:00 10,9 8,6 10,4 11,4 13,5 3 2 12 7 N 1026,6 7 0 0,0
30.11.2020 18:00:00 10,9 8,8 10,4 11,3 13,5 9 5 16 9 NNW 1026,0 8 0 0,0
30.11.2020 17:00:00 11,0 9,3 10,7 11,3 13,5 8 5 21 11 NNW 1025,4 7 0 0,0
30.11.2020 16:00:00 11,3 9,7 11,4 11,1 13,5 12 6 23 12 NW 1025,2 8 0 0,0
30.11.2020 15:00:00 11,2 9,8 11,8 11,0 13,5 10 6 19 10 NNW 1025,0 7 0 0,0
30.11.2020 14:00:00 11,5 9,7 12,5 10,8 13,5 11 6 17 9 WNW 1024,9 6 5 0,0
30.11.2020 13:00:00 11,6 10,2 13,0 10,7 13,5 11 6 18 10 NNW 1024,9 9 5 0,0
30.11.2020 12:00:00 13,2 10,0 14,4 10,6 13,5 4 2 8 4 NNO 1025,0 12 23 0,0
30.11.2020 11:00:00 11,6 10,8 9,7 10,6 13,5 0 0 9 5 N 1024,9 21 42 0,0
30.11.2020 10:00:00 7,7 7,6 5,8 10,7 13,5 9 5 14 7 ZZO 1024,6 18 8 0,0
30.11.2020 09:00:00 6,6 6,3 3,1 10,8 13,5 4 2 10 5 OZO 1024,0 9 1 0,0
30.11.2020 08:00:00 6,1 5,7 2,5 10,8 13,5 10 6 13 7 ZZO 1023,3 16 0 0,0
30.11.2020 07:00:00 6,7 6,4 3,3 10,9 13,5 10 5 11 6 ZZO 1022,8 27 0 0,0
30.11.2020 06:00:00 5,7 5,4 3,0 11,0 13,5 5 3 10 6 OZO 1022,1 3,9 0 0,0
30.11.2020 05:00:00 6,1 5,5 3,6 11,1 13,5 8 4 13 7 ZO 1021,6 11 0 0,0
30.11.2020 04:00:00 7,0 6,4 3,5 11,2 13,5 7 4 11 6 ZZO 1021,4 15 0 0,2
30.11.2020 03:00:00 7,9 7,3 3,5 11,3 13,5 5 3 9 5 Z 1021,1 13 0 0,0
30.11.2020 02:00:00 8,2 7,6 3,7 11,4 13,5 5 3 9 5 Z 1020,8 6 0 0,0
30.11.2020 01:00:00 8,0 6,9 4,1 11,4 13,5 6 3 7 4 Z 1020,7 6 0 0,0
30.11.2020 00:00:00 9,1 7,7 4,3 11,5 13,5 2 1 10 5 ZO 1020,3 17 0 0,0
29.11.2020 23:00:00 10,2 8,3 6,1 11,6 13,5 8 4 14 8 Z 1019,8 21 0 0,0
29.11.2020 22:00:00 10,7 8,5 6,5 11,6 13,5 9 5 14 8 ZO 1019,4 25 0 0,0
29.11.2020 21:00:00 12,8 8,7 7,1 11,7 13,5 6 3 9 5 Z 1019,0 25 0 0,0
29.11.2020 20:00:00 12,6 8,1 8,2 11,7 13,5 7 4 8 5 O 1018,7 32 0 0,0
29.11.2020 19:00:00 13,4 8,7 8,2 11,7 13,5 6 3 11 6 O 1017,8 33 0 0,0
29.11.2020 18:00:00 13,9 8,7 9,2 11,6 13,5 10 5 12 7 O 1017,4 60 6 0,0
29.11.2020 17:00:00 15,3 9,2 13,2 11,5 13,5 8 4 14 8 O 1016,9 54 32 0,0
29.11.2020 16:00:00 17,7 9,1 19,3 11,3 13,5 8 4 14 8 O 1016,4 53 60 0,0
29.11.2020 15:00:00 17,5 10,6 19,6 11,1 13,5 8 5 16 8 NO 1016,2 19 57 0,0
29.11.2020 14:00:00 17,3 9,9 19,9 10,9 13,6 7 4 11 6 N 1016,3 14 56 0,0
29.11.2020 13:00:00 17,0 9,2 17,9 10,8 13,5 3 2 10 6 O 1016,5 31 60 0,0
29.11.2020 12:00:00 14,5 9,5 15,2 10,7 13,6 5 3 8 4 O 1016,9 30 47 0,0
29.11.2020 11:00:00 11,4 9,0 10,8 10,7 13,6 5 3 10 5 O 1016,9 24 57 0,0
29.11.2020 10:00:00 8,8 7,7 7,9 10,8 13,6 5 3 12 6 OZO 1016,2 28 60 0,0
29.11.2020 09:00:00 6,7 6,4 3,8 10,9 13,6 8 4 12 6 ZZO 1015,5 13 18 0,0
29.11.2020 08:00:00 6,4 6,1 2,8 10,9 13,6 3 2 13 7 Z 1014,6 4,1 0 0,0
29.11.2020 07:00:00 6,4 6,0 5,0 11,0 13,6 8 4 19 10 OZO 1013,9 6 0 0,0
29.11.2020 06:00:00 6,6 6,2 5,2 11,1 13,6 10 5 14 7 O 1013,1 2,4 0 0,0
29.11.2020 05:00:00 7,5 7,1 5,9 11,2 13,6 9 5 17 9 ONO 1013,0 4,1 0 0,2
29.11.2020 04:00:00 7,6 7,0 5,9 11,3 13,6 11 6 17 9 O 1013,0 6 0 0,0
29.11.2020 03:00:00 7,5 6,6 5,2 11,3 13,6 11 6 17 9 O 1012,8 8 0 0,0
29.11.2020 02:00:00 8,1 7,5 5,2 11,4 13,6 8 4 14 7 ZZO 1012,5 11 0 0,0
29.11.2020 01:00:00 8,8 8,0 5,4 11,5 13,6 4 2 14 7 ZO 1012,6 15 0 0,0
29.11.2020 00:00:00 9,0 8,1 6,8 11,5 13,6 12 7 16 9 O 1012,2 13 0 0,0
28.11.2020 23:00:00 9,1 8,2 6,7 11,6 13,6 11 6 17 9 ONO 1011,6 13 0 0,0
28.11.2020 22:00:00 10,3 8,4 8,2 11,6 13,6 8 4 14 8 O 1011,0 23 0 0,0
28.11.2020 21:00:00 10,7 9,0 7,5 11,6 13,6 13 7 17 9 ONO 1010,4 19 0 0,0
28.11.2020 20:00:00 10,2 8,5 7,6 11,7 13,6 9 5 18 10 O 1009,5 24 0 0,0
28.11.2020 19:00:00 11,0 8,7 8,9 11,7 13,6 12 7 21 11 O 1009,0 24 0 0,0
28.11.2020 18:00:00 12,0 8,8 9,5 11,6 13,6 5 3 18 10 OZO 1008,3 32 7 0,0
28.11.2020 17:00:00 14,3 9,5 14,1 11,5 13,6 10 6 23 12 O 1007,5 37 60 0,0
28.11.2020 16:00:00 15,2 10,2 16,5 11,3 13,6 12 6 23 13 O 1007,1 29 60 0,0
28.11.2020 15:00:00 14,5 9,5 16,2 11,1 13,6 13 7 19 11 O 1006,6 20 60 0,0
28.11.2020 14:00:00 13,5 9,5 16,0 11,0 13,6 11 6 20 11 O 1006,8 28 60 0,0
28.11.2020 13:00:00 12,2 8,5 12,7 10,9 13,6 9 5 21 12 O 1007,0 20 37 0,0
28.11.2020 12:00:00 12,5 9,0 12,9 10,9 13,6 4 2 8 5 O 1007,4 18 7 0,0
28.11.2020 11:00:00 9,8 7,6 10,3 10,9 13,6 3 2 11 6 Z 1007,7 15 37 0,0
28.11.2020 10:00:00 8,8 8,0 4,7 10,9 13,6 4 2 16 9 ZZO 1007,8 12 60 0,0
28.11.2020 09:00:00 5,0 4,7 2,4 11,0 13,6 13 7 16 8 O 1007,8 2,9 0 0,0
28.11.2020 08:00:00 4,8 4,5 2,8 11,1 13,6 6 3 9 5 O 1007,3 6 0 0,0
28.11.2020 07:00:00 4,6 4,3 2,9 11,3 13,6 9 5 11 6 O 1007,3 1,1 0 0,0
28.11.2020 06:00:00 5,0 4,7 3,0 11,4 13,6 5 3 12 6 ZO 1007,1 2,6 0 0,0
28.11.2020 05:00:00 5,7 5,3 3,4 11,5 13,6 8 4 14 8 ZZO 1007,3 8 0 0,2
28.11.2020 04:00:00 5,7 5,4 3,4 11,6 13,6 8 5 14 8 ZZO 1007,8 8 0 0,0
28.11.2020 03:00:00 6,2 5,9 3,6 11,7 13,6 6 3 11 6 ZO 1008,1 1,0 0 0,0
28.11.2020 02:00:00 6,5 6,1 4,7 11,8 13,6 5 3 11 6 O 1008,2 0,3 0 0,0
28.11.2020 01:00:00 8,4 8,1 4,1 11,9 13,6 4 2 9 5 O 1008,8 0,6 0 0,0
28.11.2020 00:00:00 7,8 7,4 4,7 12,0 13,6 6 4 10 5 ZO 1009,2 0,9 0 0,0

tt = temperatuur
td = dauwpunt
tt 5cm = temperatuur 5cm
tt -20cm = temperatuur -20cm
tt -100cm = temperatuur -100cm
ff = windsnelheid
fx = windstoten
dd = windrichting
ppp = luchtdruk
vv = zicht
sd = Zonneschijnduur
rr = neerslag

Weerstations in de omgeving